�N����,����,�~����,�C��,���x,�C��,����,���ϕ���,�ő�u�ԕ���,�ő厞����,���˗�,�I�_���x,�n�����x,�ő啗���N��,DTYPE
"22/06/11","00:10",0.0,20.2,82.3,1010.4,320.3,2.0,3.2,330.8,0.00,17.1,20.5,"00:00:08",1
"22/06/11","00:20",0.0,20.2,82.5,1010.4,294.4,1.2,1.7,312.6,0.00,17.2,20.5,"00:11:52",1
"22/06/11","00:30",0.0,20.3,82.6,1010.2,324.9,1.7,2.4,328.9,0.00,17.3,20.5,"00:28:56",1
"22/06/11","00:40",0.0,20.2,82.5,1010.2,287.2,1.3,1.8,324.1,0.00,17.2,20.4,"00:30:16",1
"22/06/11","00:50",0.0,20.1,82.3,1010.2,297.1,1.2,2.0,308.5,0.00,17.0,20.6,"00:40:48",1
"22/06/11","01:00",0.0,20.1,82.2,1010.2,319.9,1.5,2.1,314.5,0.00,17.0,20.4,"00:52:00",1
"22/06/11","01:10",0.0,20.1,82.3,1010.2,329.9,1.1,1.8,330.3,0.00,17.0,20.4,"01:02:32",1
"22/06/11","01:20",0.0,20.2,82.9,1010.2,337.8,1.3,1.8,343.9,0.00,17.2,20.5,"01:15:12",1
"22/06/11","01:30",0.0,20.0,83.4,1010.0,334.4,1.5,1.9,327.6,0.00,17.1,20.5,"01:22:16",1
"22/06/11","01:40",0.0,19.8,83.9,1010.0,313.1,1.3,2.0,327.4,0.00,17.0,20.2,"01:32:16",1
"22/06/11","01:50",0.0,19.8,84.3,1010.0,292.1,1.0,1.2,311.8,0.00,17.1,20.4,"01:46:32",1
"22/06/11","02:00",0.0,19.8,84.7,1009.7,304.2,1.5,2.9,308.3,0.00,17.2,20.3,"01:59:52",1
"22/06/11","02:10",0.0,20.0,84.6,1009.7,309.1,1.6,3.1,305.2,0.00,17.4,20.4,"02:02:16",1
"22/06/11","02:20",0.0,19.9,84.5,1009.5,297.0,1.1,1.8,259.7,0.00,17.3,20.3,"02:14:00",1
"22/06/11","02:30",0.0,19.9,84.2,1010.2,310.4,1.3,2.0,311.5,0.00,17.2,20.2,"02:29:28",1
"22/06/11","02:40",0.0,19.9,84.0,1009.7,301.5,1.2,1.7,310.5,0.00,17.2,20.3,"02:30:16",1
"22/06/11","02:50",0.0,19.9,83.9,1009.5,312.3,1.2,1.7,310.8,0.00,17.1,20.1,"02:41:12",1
"22/06/11","03:00",0.0,19.9,84.0,1009.7,302.9,1.1,1.9,310.9,0.00,17.2,20.3,"02:50:02",1
"22/06/11","03:10",0.0,19.9,84.2,1009.5,328.9,1.3,1.7,334.0,0.00,17.2,20.2,"03:04:40",1
"22/06/11","03:20",0.0,20.0,84.8,1009.5,335.1,1.3,1.7,344.2,0.00,17.4,20.1,"03:14:16",1
"22/06/11","03:30",0.0,19.8,85.4,1009.5,327.6,1.3,1.6,337.2,0.00,17.3,20.1,"03:20:32",1
"22/06/11","03:40",0.0,19.6,85.9,1009.7,301.8,1.3,2.2,311.5,0.00,17.2,20.0,"03:30:40",1
"22/06/11","03:50",0.0,19.6,86.3,1010.0,291.5,1.0,1.4,309.2,0.00,17.3,20.1,"03:45:12",1
"22/06/11","04:00",0.0,19.6,86.7,1009.7,330.6,1.2,1.6,342.7,0.00,17.4,20.1,"03:57:28",1
"22/06/11","04:10",0.0,19.7,86.9,1009.7,314.9,1.2,1.6,336.2,0.00,17.5,20.1,"04:00:16",1
"22/06/11","04:20",0.0,19.6,87.2,1009.7,308.3,1.3,2.0,332.8,0.00,17.5,20.2,"04:17:52",1
"22/06/11","04:30",0.0,19.6,87.4,1009.5,309.5,1.3,2.4,324.2,0.00,17.5,20.0,"04:23:04",1
"22/06/11","04:40",0.0,19.7,87.5,1010.0,302.5,1.2,1.8,320.1,0.00,17.6,20.0,"04:33:52",1
"22/06/11","04:50",0.0,19.7,87.6,1010.2,316.9,1.6,2.0,308.6,0.00,17.6,20.0,"04:41:28",1
"22/06/11","05:00",0.0,19.8,87.7,1009.7,289.3,1.0,1.3,307.0,0.00,17.7,20.0,"04:50:08",1
"22/06/11","05:10",0.0,19.8,87.7,1010.0,303.3,1.2,1.7,322.8,0.00,17.7,20.0,"05:06:24",1
"22/06/11","05:20",0.0,19.9,87.7,1010.2,311.5,1.5,2.4,325.7,0.00,17.8,20.0,"05:14:00",1
"22/06/11","05:30",0.0,19.8,87.7,1010.0,313.5,1.2,1.7,318.6,0.00,17.7,19.9,"05:25:20",1
"22/06/11","05:40",0.0,19.9,87.7,1010.2,312.0,1.3,2.0,321.5,0.00,17.8,19.8,"05:37:52",1
"22/06/11","05:50",0.0,20.0,87.9,1010.2,324.4,1.5,1.8,320.7,0.00,18.0,20.0,"05:48:40",1
"22/06/11","06:00",0.0,20.0,88.1,1010.4,317.9,1.5,1.7,314.5,0.00,18.0,20.0,"05:50:08",1
"22/06/11","06:10",0.0,20.2,88.2,1010.2,281.2,1.2,1.6,275.1,0.00,18.2,20.0,"06:06:08",1
"22/06/11","06:20",0.0,20.3,88.3,1010.0,286.5,1.0,1.2,286.1,0.00,18.3,20.0,"06:10:08",1
"22/06/11","06:30",0.0,20.5,88.3,1010.2,284.8,1.1,1.4,271.4,0.00,18.5,19.9,"06:20:48",1
"22/06/11","06:40",0.0,20.6,88.2,1010.0,286.2,1.2,1.6,257.5,0.01,18.6,20.0,"06:30:48",1
"22/06/11","06:50",0.0,20.9,88.0,1010.2,283.8,1.2,1.7,269.5,0.01,18.9,19.9,"06:49:04",1
"22/06/11","07:00",0.0,21.1,87.7,1010.2,307.1,1.6,2.1,277.0,0.02,19.0,19.9,"06:50:48",1
"22/06/11","07:10",0.0,21.3,87.3,1010.4,317.7,1.6,2.4,322.9,0.04,19.1,19.9,"07:04:32",1
"22/06/11","07:20",0.0,21.6,86.9,1010.2,314.5,1.2,2.1,326.2,0.05,19.4,20.0,"07:11:44",1
"22/06/11","07:30",0.0,21.9,86.5,1010.0,287.9,1.0,1.8,335.7,0.07,19.6,19.8,"07:22:40",1
"22/06/11","07:40",0.0,22.1,85.7,1010.2,274.2,0.7,1.3,262.7,0.08,19.6,20.0,"07:30:40",1
"22/06/11","07:50",0.0,22.4,84.7,1009.7,319.4,0.8,1.4,334.1,0.07,19.7,19.9,"07:45:04",1
"22/06/11","08:00",0.0,22.5,83.8,1010.0,327.1,0.8,1.3,328.4,0.06,19.7,19.6,"07:50:24",1
"22/06/11","08:10",0.0,22.8,83.1,1009.7,278.1,0.3,1.1,314.0,0.06,19.8,19.9,"08:07:44",1
"22/06/11","08:20",0.0,22.9,82.5,1009.7,33.3,0.3,0.9,297.7,0.07,19.8,19.8,"08:10:48",1
"22/06/11","08:30",0.0,22.9,81.3,1009.5,30.6,0.5,1.4,15.2,0.07,19.6,19.9,"08:28:40",1
"22/06/11","08:40",0.0,23.0,79.9,1009.5,44.9,0.7,1.8,42.7,0.07,19.4,20.0,"08:31:28",1
"22/06/11","08:50",0.0,23.1,78.7,1009.3,116.2,0.7,2.7,161.3,0.08,19.2,20.0,"08:49:20",1
"22/06/11","09:00",0.0,23.0,78.6,1009.3,111.6,0.8,2.1,130.8,0.07,19.1,20.0,"08:50:40",1
"22/06/11","09:10",0.0,23.1,78.1,1009.3,104.7,0.7,1.9,91.7,0.07,19.1,19.8,"09:06:40",1
"22/06/11","09:20",0.0,23.2,77.8,1008.6,83.4,0.7,1.6,65.9,0.08,19.2,20.0,"09:13:04",1
"22/06/11","09:30",0.0,23.2,77.6,1008.6,81.5,1.0,2.1,208.4,0.10,19.1,19.9,"09:24:48",1
"22/06/11","09:40",0.0,23.4,77.0,1008.3,87.2,1.0,2.8,106.1,0.12,19.2,20.1,"09:30:16",1
"22/06/11","09:50",0.0,23.8,76.3,1008.6,68.8,1.0,2.1,94.5,0.15,19.4,20.1,"09:41:04",1
"22/06/11","10:00",0.0,24.2,75.8,1008.3,94.2,0.8,1.9,62.1,0.15,19.7,20.0,"09:54:16",1
"22/06/11","10:10",0.0,24.4,74.6,1008.3,80.5,1.1,2.2,120.6,0.18,19.6,20.0,"10:00:16",1
"22/06/11","10:20",0.0,24.5,73.9,1008.1,137.5,1.5,3.4,126.6,0.21,19.6,19.8,"10:16:56",1
"22/06/11","10:30",0.0,24.6,72.9,1008.1,136.9,1.3,3.5,160.5,0.21,19.5,20.1,"10:27:28",1
"22/06/11","10:40",0.0,24.6,72.1,1008.3,143.1,1.2,3.5,146.2,0.18,19.3,19.9,"10:34:16",1
"22/06/11","10:50",0.0,24.4,72.2,1008.1,115.7,1.2,2.8,142.1,0.14,19.1,20.1,"10:46:48",1
"22/06/11","11:00",0.0,24.6,72.2,1007.8,118.3,1.0,2.5,130.9,0.16,19.3,20.0,"10:55:20",1
"22/06/11","11:10",0.0,24.6,71.1,1007.6,107.2,1.1,2.6,79.9,0.15,19.1,20.1,"11:02:00",1
"22/06/11","11:20",0.0,24.5,70.9,1007.8,101.3,1.0,2.1,103.3,0.13,18.9,20.1,"11:17:52",1
"22/06/11","11:30",0.0,24.7,72.0,1007.6,113.5,0.8,2.2,108.1,0.14,19.4,20.1,"11:25:04",1
"22/06/11","11:40",0.0,24.7,71.0,1007.4,93.4,0.7,2.2,49.0,0.15,19.1,20.0,"11:32:56",1
"22/06/11","11:50",0.0,24.8,70.2,1007.4,89.6,0.8,1.9,43.9,0.15,19.0,19.9,"11:43:04",1
"22/06/11","12:00",0.0,24.9,70.1,1007.4,75.4,0.7,1.8,106.1,0.13,19.1,20.1,"11:51:52",1
"22/06/11","12:10",0.0,24.8,70.5,1007.4,84.8,1.1,2.5,136.7,0.12,19.1,20.1,"12:03:44",1
"22/06/11","12:20",0.0,24.5,70.4,1007.6,77.5,1.1,2.5,27.3,0.10,18.8,20.0,"12:12:40",1
"22/06/11","12:30",0.0,24.3,71.0,1007.1,63.2,1.0,2.9,76.4,0.07,18.7,20.1,"12:24:24",1
"22/06/11","12:40",0.0,24.1,71.9,1007.1,95.4,0.7,2.1,117.8,0.07,18.8,20.2,"12:33:36",1
"22/06/11","12:50",0.0,24.2,71.9,1006.7,36.1,0.7,2.2,347.5,0.09,18.9,20.1,"12:44:56",1
"22/06/11","13:00",0.0,24.3,72.3,1006.7,60.9,0.7,2.0,79.4,0.08,19.0,20.2,"12:57:28",1
"22/06/11","13:10",0.0,24.3,72.0,1006.9,85.5,0.8,2.8,146.1,0.09,19.0,20.3,"13:08:24",1
"22/06/11","13:20",0.0,24.4,71.9,1007.1,56.5,1.1,3.7,3.2,0.12,19.0,20.2,"13:15:44",1
"22/06/11","13:30",0.0,24.5,71.4,1006.9,92.8,1.2,3.2,84.3,0.12,19.0,20.3,"13:25:20",1
"22/06/11","13:40",0.0,24.3,71.3,1006.9,102.1,1.0,2.1,133.5,0.09,18.8,20.4,"13:34:16",1
"22/06/11","13:50",0.0,24.4,71.5,1006.4,111.5,0.8,2.2,111.1,0.10,19.0,20.4,"13:46:40",1
"22/06/11","14:00",0.0,24.4,71.5,1006.7,99.3,0.7,2.0,102.6,0.08,19.0,20.4,"13:57:36",1
"22/06/11","14:10",0.0,24.2,69.6,1006.4,118.2,1.0,2.7,131.5,0.05,18.3,20.3,"14:01:36",1
"22/06/11","14:20",0.0,24.0,71.0,1006.4,108.8,0.7,2.0,83.6,0.06,18.5,20.4,"14:15:36",1
"22/06/11","14:30",0.0,23.8,69.2,1006.0,121.5,1.3,2.8,96.9,0.05,17.9,20.2,"14:21:12",1
"22/06/11","14:40",0.0,24.1,70.6,1005.7,113.2,0.7,2.0,114.7,0.07,18.5,20.3,"14:35:44",1
"22/06/11","14:50",0.0,24.1,72.1,1005.7,86.4,1.0,2.0,92.3,0.09,18.8,20.3,"14:41:20",1
"22/06/11","15:00",0.0,24.2,72.8,1005.7,103.6,1.0,1.9,28.4,0.09,19.1,20.2,"14:55:12",1
"22/06/11","15:10",0.0,24.0,73.3,1005.5,98.3,1.1,2.2,134.2,0.08,19.0,20.4,"15:01:44",1
"22/06/11","15:20",0.0,23.9,74.3,1005.5,84.2,0.8,2.2,102.5,0.07,19.1,20.3,"15:14:48",1
"22/06/11","15:30",0.0,23.6,75.5,1005.5,84.5,0.7,1.6,112.2,0.04,19.1,20.3,"15:23:52",1
"22/06/11","15:40",0.0,23.2,76.9,1005.5,91.1,1.0,2.5,66.2,0.03,19.0,20.3,"15:30:56",1
"22/06/11","15:50",0.0,22.8,79.0,1005.5,112.8,0.6,1.7,82.3,0.03,19.0,20.3,"15:40:32",1
"22/06/11","16:00",0.0,22.6,80.4,1005.5,139.9,0.6,1.7,140.5,0.04,19.1,20.3,"15:51:36",1
"22/06/11","16:10",0.0,22.5,81.2,1005.5,72.8,0.7,1.6,78.9,0.03,19.2,20.3,"16:08:40",1
"22/06/11","16:20",0.2,22.6,82.1,1005.5,25.9,0.6,1.4,111.1,0.04,19.4,20.3,"16:13:20",1
"22/06/11","16:30",0.0,22.3,83.0,1005.7,120.9,0.6,1.6,127.7,0.04,19.3,20.4,"16:22:32",1
"22/06/11","16:40",0.0,22.2,83.3,1005.5,132.2,0.5,1.8,131.7,0.05,19.3,20.1,"16:33:44",1
"22/06/11","16:50",0.2,22.1,83.7,1005.2,303.6,0.3,0.8,332.5,0.02,19.3,20.3,"16:44:08",1
"22/06/11","17:00",0.0,21.9,84.1,1005.5,64.9,0.3,1.1,74.1,0.01,19.1,20.3,"16:50:02",1
"22/06/11","17:10",0.0,21.9,84.8,1005.7,345.1,0.6,1.3,5.8,0.02,19.3,20.5,"17:08:56",1
"22/06/11","17:20",0.2,21.7,85.3,1005.7,336.2,0.5,1.8,352.5,0.01,19.2,20.3,"17:15:04",1
"22/06/11","17:30",0.0,21.7,85.9,1005.7,349.2,0.6,1.3,333.9,0.01,19.3,20.4,"17:28:24",1
"22/06/11","17:40",0.2,21.2,86.2,1005.7,5.9,0.6,1.9,329.4,0.01,18.8,20.5,"17:33:20",1
"22/06/11","17:50",0.0,20.8,86.7,1005.7,168.7,0.6,1.6,172.3,0.00,18.5,20.3,"17:40:40",1
"22/06/11","18:00",0.0,20.6,87.0,1005.5,224.0,0.3,1.2,334.4,0.00,18.4,20.2,"17:59:04",1
"22/06/11","18:10",0.2,20.4,87.3,1005.2,317.8,0.5,1.0,333.9,0.00,18.3,20.2,"18:04:08",1
"22/06/11","18:20",0.2,20.3,87.6,1005.2,270.2,0.3,0.6,304.5,0.00,18.2,20.3,"18:18:24",1
"22/06/11","18:30",0.0,20.3,87.9,1005.0,289.7,1.0,1.6,316.2,0.00,18.3,20.2,"18:25:44",1
"22/06/11","18:40",0.2,20.3,88.2,1004.8,296.9,1.0,1.6,323.9,0.00,18.3,20.3,"18:30:02",1
"22/06/11","18:50",0.2,20.2,88.6,1005.0,300.1,1.0,2.0,322.3,0.00,18.3,20.3,"18:41:20",1
"22/06/11","19:00",0.0,20.3,89.0,1005.0,324.1,1.2,2.1,335.6,0.00,18.5,20.2,"18:59:52",1
"22/06/11","19:10",0.0,20.1,89.5,1005.2,313.1,1.3,2.0,320.8,0.00,18.4,20.3,"19:00:56",1
"22/06/11","19:20",0.0,19.9,89.9,1005.0,304.7,1.1,1.8,331.1,0.00,18.2,20.0,"19:16:48",1
"22/06/11","19:30",0.2,19.9,90.4,1005.2,327.8,1.5,2.0,330.6,0.00,18.3,20.2,"19:26:24",1
"22/06/11","19:40",0.0,19.7,90.8,1005.0,330.2,1.3,2.4,331.2,0.00,18.2,20.2,"19:36:24",1
"22/06/11","19:50",0.0,19.5,91.1,1005.2,291.6,1.1,1.6,300.1,0.00,18.0,20.3,"19:43:44",1
"22/06/11","20:00",0.0,19.4,91.4,1004.8,283.4,0.8,1.2,263.2,0.00,18.0,20.3,"19:57:12",1
"22/06/11","20:10",0.0,19.4,91.7,1004.5,277.2,0.8,2.1,259.3,0.00,18.1,20.2,"20:02:40",1
"22/06/11","20:20",0.0,19.4,91.9,1004.8,291.4,1.0,1.6,313.9,0.00,18.1,20.3,"20:15:20",1
"22/06/11","20:30",0.0,19.5,92.2,1005.0,311.7,1.0,1.3,315.3,0.00,18.2,20.2,"20:27:04",1
"22/06/11","20:40",0.0,19.5,92.4,1005.0,322.0,1.3,2.4,330.5,0.00,18.3,20.1,"20:36:56",1
"22/06/11","20:50",0.0,19.4,92.6,1005.2,347.1,1.2,2.1,336.7,0.00,18.2,20.1,"20:43:36",1
"22/06/11","21:00",0.2,19.2,92.8,1005.2,313.2,1.1,1.7,340.2,0.00,18.0,20.3,"20:51:12",1
"22/06/11","21:10",0.2,19.2,93.0,1005.0,267.8,0.8,1.6,330.2,0.00,18.1,20.0,"21:00:02",1
"22/06/11","21:20",0.2,19.2,93.1,1005.2,303.9,1.1,1.7,331.1,0.00,18.1,20.0,"21:12:56",1
"22/06/11","21:30",0.2,19.1,93.3,1005.2,293.4,0.7,1.2,301.0,0.00,18.0,20.1,"21:25:36",1
"22/06/11","21:40",0.0,18.9,93.4,1005.0,292.5,0.6,1.4,244.2,0.00,17.9,20.1,"21:37:20",1
"22/06/11","21:50",0.2,19.0,93.6,1005.5,266.1,1.0,1.6,257.4,0.00,18.0,20.0,"21:47:52",1
"22/06/11","22:00",0.0,18.9,93.7,1005.5,289.0,1.1,1.4,307.5,0.00,17.9,20.0,"21:56:16",1
"22/06/11","22:10",0.0,18.9,93.8,1005.5,316.9,1.2,2.0,316.8,0.00,17.9,19.9,"22:03:28",1
"22/06/11","22:20",0.0,18.7,93.9,1005.0,310.5,1.0,2.0,316.8,0.00,17.7,19.9,"22:13:20",1
"22/06/11","22:30",0.2,18.7,94.1,1005.2,309.5,1.2,2.0,310.0,0.00,17.8,19.9,"22:29:36",1
"22/06/11","22:40",0.0,18.5,94.2,1005.2,317.8,1.5,2.4,306.5,0.00,17.6,20.1,"22:36:32",1
"22/06/11","22:50",0.2,18.4,94.3,1005.0,277.7,0.7,1.2,242.3,0.00,17.5,20.1,"22:48:48",1
"22/06/11","23:00",0.0,18.4,94.3,1004.8,268.5,1.1,2.1,265.0,0.00,17.5,19.9,"22:54:40",1
"22/06/11","23:10",0.0,18.3,94.4,1004.8,308.7,1.1,1.9,306.3,0.00,17.4,20.1,"23:09:44",1
"22/06/11","23:20",0.0,18.3,94.5,1004.3,301.6,1.5,2.2,318.8,0.00,17.4,20.0,"23:10:32",1
"22/06/11","23:30",0.0,18.2,94.6,1004.3,275.7,1.1,1.8,253.0,0.00,17.4,20.0,"23:29:20",1
"22/06/11","23:40",0.0,18.2,94.7,1004.3,268.6,1.1,1.9,259.7,0.00,17.4,20.0,"23:39:04",1
"22/06/11","23:50",0.0,18.2,94.7,1004.8,281.4,1.3,2.2,263.8,0.00,17.4,20.0,"23:46:16",1
"22/06/11","24:00",0.0,18.1,94.8,1004.5,301.1,1.5,2.2,331.3,0.00,17.3,19.9,"23:56:24",1
